H1 CPF 2 NER 2025 3 7 9 066 01 glonass142 H2 2001801 9142 45358 2025 3 7 0 0 0 2025 3 10 23 45 0 900 1 1 0 0 0 1 H9 10 0 60741 0.00000 0 10117665.765 -12661868.110 19708631.042 10 0 60741 900.00000 0 12292323.576 -13460128.446 17853804.083 10 0 60741 1800.00000 0 14171948.965 -14321212.932 15652506.023 10 0 60741 2700.00000 0 15723325.862 -15191054.837 13147374.277 10 0 60741 3600.00000 0 16925535.146 -16011884.606 10386965.776 10 0 60741 4500.00000 0 17770598.525 -16724765.313 7424822.004 10 0 60741 5400.00000 0 18263589.898 -17272197.143 4318434.599 10 0 60741 6300.00000 0 18422209.651 -17600680.940 1128131.162 10 0 60741 7200.00000 0 18275839.855 -17663132.066 -2084097.152 10 0 60741 8100.00000 0 17864120.375 -17421041.754 -5255803.268 10 0 60741 9000.00000 0 17235106.145 -16846293.484 -8325303.112 10 0 60741 9900.00000 0 16443083.811 -15922556.268 -11232881.382 10 0 60741 10800.00000 0 15546140.470 -14646194.515 -13921959.964 10 0 60741 11700.00000 0 14603587.835 -13026654.573 -16340205.478 10 0 60741 12600.00000 0 13673351.316 -11086310.182 -18440553.696 10 0 60741 13500.00000 0 12809434.934 -8859772.016 -20182130.358 10 0 60741 14400.00000 0 12059569.676 -6392689.110 -21531050.149 10 0 60741 15300.00000 0 11463144.947 -3740091.470 -22461078.096 10 0 60741 16200.00000 0 11049510.640 -964342.430 -22954140.556 10 0 60741 17100.00000 0 10836721.476 1867214.354 -23000675.998 10 0 60741 18000.00000 0 10830776.425 4684815.550 -22599818.970 10 0 60741 18900.00000 0 11025385.008 7418940.154 -21759413.915 10 0 60741 19800.00000 0 11402269.927 10002962.443 -20495858.811 10 0 60741 20700.00000 0 11931992.815 12375685.800 -18833781.882 10 0 60741 21600.00000 0 12575267.753 14483652.491 -16805557.836 10 0 60741 22500.00000 0 13284706.643 16283133.889 -14450673.213 10 0 60741 23400.00000 0 14006922.229 17741719.001 -11814953.385 10 0 60741 24300.00000 0 14684899.491 18839436.102 -8949666.472 10 0 60741 25200.00000 0 15260534.800 19569361.917 -5910521.882 10 0 60741 26100.00000 0 15677235.144 19937694.274 -2756583.362 10 0 60741 27000.00000 0 15882467.282 19963286.788 450881.923 10 0 60741 27900.00000 0 15830148.873 19676666.691 3649595.500 10 0 60741 28800.00000 0 15482780.398 19118578.622 6777477.322 10 0 60741 29700.00000 0 14813227.791 18338116.919 9773849.386 10 0 60741 30600.00000 0 13806080.462 17390526.105 12580609.818 10 0 60741 31500.00000 0 12458527.402 16334762.839 15143354.730 10 0 60741 32400.00000 0 10780714.248 15230922.257 17412426.498 10 0 60741 33300.00000 0 8795565.924 14137636.950 19343868.754 10 0 60741 34200.00000 0 6538081.645 13109557.506 20900270.326 10 0 60741 35100.00000 0 4054130.915 12195019.880 22051482.712 10 0 60741 36000.00000 0 1398799.602 11433996.663 22775198.063 10 0 60741 36900.00000 0 -1365646.331 10856417.411 23057377.284 10 0 60741 37800.00000 0 -4172096.249 10480927.711 22892520.549 10 0 60741 38700.00000 0 -6951134.043 10314138.439 22283775.272 10 0 60741 39600.00000 0 -9633677.215 10350396.388 21242879.453 10 0 60741 40500.00000 0 -12153607.846 10572085.847 19789941.055 10 0 60741 41400.00000 0 -14450287.530 10950448.754 17953057.023 10 0 60741 42300.00000 0 -16470852.787 11446889.451 15767778.402 10 0 60741 43200.00000 0 -18172196.306 12014709.778 13276430.857 10 0 60741 44100.00000 0 -19522551.944 12601202.099 10527302.697 10 0 60741 45000.00000 0 -20502617.577 13150012.582 7573715.223 10 0 60741 45900.00000 0 -21106168.927 13603675.283 4472992.717 10 0 60741 46800.00000 0 -21340138.596 13906210.042 1285351.590 10 0 60741 47700.00000 0 -21224156.904 14005673.985 -1927269.784 10 0 60741 48600.00000 0 -20789573.821 13856558.042 -5102417.624 10 0 60741 49500.00000 0 -20078003.237 13421926.044 -8178341.741 10 0 60741 50400.00000 0 -19139451.149 12675204.640 -11095202.588 10 0 60741 51300.00000 0 -18030107.056 11601546.897 -13796242.055 10 0 60741 52200.00000 0 -16809892.224 10198710.393 -16228894.524 10 0 60741 53100.00000 0 -15539868.796 8477411.235 -18345815.790 10 0 60741 54000.00000 0 -14279619.564 6461137.557 -20105809.333 10 0 60741 54900.00000 0 -13084709.346 4185428.984 -21474631.577 10 0 60741 55800.00000 0 -12004335.295 1696651.091 -22425660.278 10 0 60741 56700.00000 0 -11079265.240 -949684.779 -22940413.076 10 0 60741 57600.00000 0 -10340150.805 -3690986.954 -23008906.265 10 0 60741 58500.00000 0 -9806286.041 -6459948.467 -22629847.008 10 0 60741 59400.00000 0 -9484863.305 -9187113.586 -21810655.502 10 0 60741 60300.00000 0 -9370757.079 -11803539.330 -20567316.926 10 0 60741 61200.00000 0 -9446844.029 -14243441.429 -18924066.208 10 0 60741 62100.00000 0 -9684844.980 -16446714.983 -16912911.970 10 0 60741 63000.00000 0 -10046652.413 -18361225.243 -14573009.039 10 0 60741 63900.00000 0 -10486086.597 -19944773.609 -11949891.928 10 0 60741 64800.00000 0 -10951005.401 -21166657.582 -9094584.431 10 0 60741 65700.00000 0 -11385677.885 -22008760.461 -6062602.904 10 0 60741 66600.00000 0 -11733320.684 -22466126.336 -2912873.022 10 0 60741 67500.00000 0 -11938689.390 -22546997.596 293418.531 10 0 60741 68400.00000 0 -11950614.927 -22272314.775 3494014.717 10 0 60741 69300.00000 0 -11724377.350 -21674701.115 6626797.587 10 0 60741 70200.00000 0 -11223816.565 -20796975.789 9630992.763 10 0 60741 71100.00000 0 -10423090.649 -19690259.365 12448345.515 10 0 60741 72000.00000 0 -9308007.480 -18411751.944 15024245.681 10 0 60741 72900.00000 0 -7876873.335 -17022277.776 17308779.993 10 0 60741 73800.00000 0 -6140822.429 -15583699.558 19257692.058 10 0 60741 74700.00000 0 -4123612.964 -14156310.648 20833232.095 10 0 60741 75600.00000 0 -1860897.397 -12796313.951 22004880.912 10 0 60741 76500.00000 0 601003.659 -11553492.271 22749935.006 10 0 60741 77400.00000 0 3206774.119 -10469166.715 23053942.223 10 0 60741 78300.00000 0 5894153.555 -9574527.640 22910980.173 10 0 60741 79200.00000 0 8596283.130 -8889407.044 22323772.302 10 0 60741 80100.00000 0 11244250.506 -8421543.130 21303639.358 10 0 60741 81000.00000 0 13769729.560 -8166367.334 19870286.794 10 0 60741 81900.00000 0 16107606.704 -8107322.558 18051431.556 10 0 60741 82800.00000 0 18198485.677 -8216699.295 15882274.554 10 0 60741 83700.00000 0 19990967.447 -8456954.770 13404827.994 10 0 60741 84600.00000 0 21443610.724 -8782459.913 10667109.518 10 0 60741 85500.00000 0 22526491.409 -9141600.912 7722217.880 10 0 60742 0.00000 0 23222295.732 -9479146.822 4627307.603 10 0 60742 900.00000 0 23526901.370 -9738783.444 1442480.417 10 0 60742 1800.00000 0 23449421.031 -9865705.511 -1770380.928 10 0 60742 2700.00000 0 23011707.661 -9809157.601 -4948819.123 10 0 60742 3600.00000 0 22247340.860 -9524814.768 -8031021.027 10 0 60742 4500.00000 0 21200137.610 -8976901.158 -10957025.849 10 0 60742 5400.00000 0 19922250.069 -8139955.550 -13669898.282 10 0 60742 6300.00000 0 18471930.848 -7000167.625 -16116842.981 10 0 60742 7200.00000 0 16911060.293 -5556226.955 -18250237.974 10 0 60742 8100.00000 0 15302540.336 -3819647.361 -20028566.360 10 0 60742 9000.00000 0 13707664.988 -1814551.484 -21417227.836 10 0 60742 9900.00000 0 12183578.405 423076.705 -22389214.063 10 0 60742 10800.00000 0 10780927.497 2846641.249 -22925634.760 10 0 60742 11700.00000 0 9541807.612 5400634.105 -23016084.442 10 0 60742 12600.00000 0 8498087.290 8022715.259 -22658842.873 10 0 60742 13500.00000 0 7670181.809 10646086.857 -21860905.589 10 0 60742 14400.00000 0 7066326.275 13202062.750 -20637844.134 10 0 60742 15300.00000 0 6682377.788 15622726.678 -19013498.932 10 0 60742 16200.00000 0 6502153.885 17843568.595 -17019510.937 10 0 60742 17100.00000 0 6498291.790 19805989.526 -14694701.332 10 0 60742 18000.00000 0 6633591.062 21459570.827 -12084311.522 10 0 60742 18900.00000 0 6862781.806 22764013.586 -9239118.427 10 0 60742 19800.00000 0 7134642.711 23690667.763 -6214442.552 10 0 60742 20700.00000 0 7394378.410 24223587.920 -3069068.513 10 0 60742 21600.00000 0 7586154.844 24360072.276 135900.598 10 0 60742 22500.00000 0 7655684.716 24110663.637 3338232.317 10 0 60742 23400.00000 0 7552753.176 23498613.295 6475773.876 10 0 60742 24300.00000 0 7233576.595 22558831.571 9487657.472 10 0 60742 25200.00000 0 6662894.521 21336370.048 12315478.263 10 0 60742 26100.00000 0 5815706.314 19884500.043 14904422.308 10 0 60742 27000.00000 0 4678579.044 18262468.432 17204322.936 10 0 60742 27900.00000 0 3250471.317 16533025.110 19170625.683 10 0 60742 28800.00000 0 1543037.913 14759825.491 20765243.822 10 0 60742 29700.00000 0 -419598.213 13004816.249 21957288.837 10 0 60742 30600.00000 0 -2601598.038 11325712.808 22723662.594 10 0 60742 31500.00000 0 -4956652.478 9773673.001 23049500.535 10 0 60742 32400.00000 0 -7429671.817 8391262.955 22928457.951 10 0 60742 33300.00000 0 -9958849.830 7210799.022 22362834.083 10 0 60742 34200.00000 0 -12478018.372 6253134.035 21363531.685 10 0 60742 35100.00000 0 -14919196.156 5526937.783 19949852.429 10 0 60742 36000.00000 0 -17215227.207 5028501.210 18149131.456 10 0 60742 36900.00000 0 -19302400.380 4742072.205 15996217.252 10 0 60742 37800.00000 0 -21122941.806 4640708.761 13532805.848 10 0 60742 38700.00000 0 -22627276.844 4687613.669 10806641.188 10 0 60742 39600.00000 0 -23775967.297 4837894.685 7870596.231 10 0 60742 40500.00000 0 -24541242.742 5040675.990 4781651.850 10 0 60742 41400.00000 0 -24908061.513 5241471.749 1599792.874 10 0 60742 42300.00000 0 -24874656.292 5384721.148 -1613157.357 10 0 60742 43200.00000 0 -24452540.902 5416377.102 -4794741.132 10 0 60742 44100.00000 0 -23665977.509 5286438.230 -7883085.298 10 0 60742 45000.00000 0 -22550926.323 4951315.825 -10818110.589 10 0 60742 45900.00000 0 -21153521.812 4375934.317 -13542707.037 10 0 60742 46800.00000 0 -19528139.578 3535474.928 -16003851.839 10 0 60742 47700.00000 0 -17735135.394 2416687.305 -18153647.186 10 0 60742 48600.00000 0 -15838351.752 1018712.241 -19950257.330 10 0 60742 49500.00000 0 -13902496.985 -646620.695 -21358726.321 10 0 60742 50400.00000 0 -11990507.271 -2555034.495 -22351660.300 10 0 60742 51300.00000 0 -10161002.327 -4670576.115 -22909761.129 10 0 60742 52200.00000 0 -8465941.362 -6946886.676 -23022201.098 10 0 60742 53100.00000 0 -6948577.272 -9328918.118 -22686831.648 10 0 60742 54000.00000 0 -5641794.186 -11755025.227 -21910222.289 10 0 60742 54900.00000 0 -4566897.202 -14159346.146 -20707529.188 10 0 60742 55800.00000 0 -3732904.005 -16474372.341 -19102196.191 10 0 60742 56700.00000 0 -3136366.792 -18633600.980 -17125494.265 10 0 60742 57600.00000 0 -2761730.580 -20574159.257 -14815908.451 10 0 60742 58500.00000 0 -2582211.337 -22239291.193 -12218384.452 10 0 60742 59400.00000 0 -2561155.487 -23580603.283 -9383449.706 10 0 60742 60300.00000 0 -2653822.004 -24559975.416 -6366226.301 10 0 60742 61200.00000 0 -2809510.604 -25151057.566 -3225355.325 10 0 60742 62100.00000 0 -2973944.940 -25340290.184 -21853.932 10 0 60742 63000.00000 0 -3091809.121 -25127406.321 3182072.209 10 0 60742 63900.00000 0 -3109329.527 -24525395.267 6324237.612 10 0 60742 64800.00000 0 -2976792.234 -23559930.176 9343683.042 10 0 60742 65700.00000 0 -2650889.271 -22268284.532 12181855.443 10 0 60742 66600.00000 0 -2096794.383 -20697783.638 14783738.885 10 0 60742 67500.00000 0 -1289880.585 -18903856.523 17098914.951 10 0 60742 68400.00000 0 -217006.924 -16947770.057 19082532.599 10 0 60742 69300.00000 0 1122679.972 -14894139.948 20696169.444 10 0 60742 70200.00000 0 2717463.725 -12808322.173 21908568.692 10 0 60742 71100.00000 0 4543308.014 -10753792.978 22696238.351 10 0 60742 72000.00000 0 6564628.947 -8789625.731 23043901.947 10 0 60742 72900.00000 0 8735559.050 -6968168.634 22944792.630 10 0 60742 73800.00000 0 11001651.663 -5333018.847 22400785.334 10 0 60742 74700.00000 0 13301956.322 -3917376.290 21422364.426 10 0 60742 75600.00000 0 15571380.338 -2742844.707 20028427.123 10 0 60742 76500.00000 0 17743239.745 -1818729.173 18245925.827 10 0 60742 77400.00000 0 19751894.604 -1141858.748 16109355.375 10 0 60742 78300.00000 0 21535359.806 -696941.284 13660094.132 10 0 60742 79200.00000 0 23037783.009 -457435.234 10945610.558 10 0 60742 80100.00000 0 24211686.384 -386901.677 8018549.735 10 0 60742 81000.00000 0 25019878.207 -440779.550 4935716.784 10 0 60742 81900.00000 0 25436953.783 -568508.993 1756976.450 10 0 60742 82800.00000 0 25450322.050 -715912.873 -1455909.911 10 0 60742 83700.00000 0 25060713.996 -827735.217 -4640487.138 10 0 60742 84600.00000 0 24282150.765 -850228.415 -7734825.047 10 0 60742 85500.00000 0 23141372.131 -733678.696 -10678728.785 10 0 60743 0.00000 0 21676749.008 -434761.807 -13414916.214 10 0 60743 900.00000 0 19936724.595 81372.283 -15890140.049 10 0 60743 1800.00000 0 17977851.569 839374.825 -18056228.607 10 0 60743 2700.00000 0 15862505.212 1852408.631 -19871029.233 10 0 60743 3600.00000 0 13656370.433 3121348.840 -21299231.981 10 0 60743 4500.00000 0 11425807.503 4634509.167 -22313058.845 10 0 60743 5400.00000 0 9235207.013 6367906.372 -22892804.903 10 0 60743 6300.00000 0 7144444.723 8286052.883 -23027220.976 10 0 60743 7200.00000 0 5206542.499 10343245.192 -22713730.579 10 0 60743 8100.00000 0 3465632.655 12485294.767 -21958477.197 10 0 60743 9000.00000 0 1955310.018 14651629.579 -20776201.208 10 0 60743 9900.00000 0 697439.668 16777678.698 -19189949.040 10 0 60743 10800.00000 0 -298531.076 18797440.469 -17230620.398 10 0 60743 11700.00000 0 -1035729.032 20646127.056 -14936362.495 10 0 60743 12600.00000 0 -1529474.958 22262774.762 -12351823.258 10 0 60743 13500.00000 0 -1806384.457 23592711.011 -9527278.220 10 0 60743 14400.00000 0 -1902989.479 24589774.784 -6517648.344 10 0 60743 15300.00000 0 -1863940.121 25218197.703 -3381428.239 10 0 60743 16200.00000 0 -1739864.034 25454067.206 -179546.028 10 0 60743 17100.00000 0 -1584975.090 25286310.927 3025822.589 10 0 60743 18000.00000 0 -1454533.373 24717161.524 6172462.568 10 0 60743 18900.00000 0 -1402264.587 23762083.116 9199326.313 10 0 60743 19800.00000 0 -1477848.473 22449163.033 12047715.467 10 0 60743 20700.00000 0 -1724582.617 20817994.959 14662414.826 10 0 60743 21600.00000 0 -2177320.383 18918100.627 16992756.705 10 0 60743 22500.00000 0 -2860770.030 16806956.293 18993595.710 10 0 60743 23400.00000 0 -3788226.705 14547706.319 20626175.760 10 0 60743 24300.00000 0 -4960790.917 12206658.893 21858873.447 10 0 60743 25200.00000 0 -6367106.745 9850667.531 22667804.273 10 0 60743 26100.00000 0 -7983631.499 7544506.440 23037280.833 10 0 60743 27000.00000 0 -9775426.611 5348347.796 22960114.718 10 0 60743 27900.00000 0 -11697437.969 3315444.576 22437756.667 10 0 60743 28800.00000 0 -13696213.729 1490114.082 21480272.253 10 0 60743 29700.00000 0 -15711989.455 -93895.136 20106153.288 10 0 60743 30600.00000 0 -17681055.165 -1414586.001 18341967.910 10 0 60743 31500.00000 0 -19538306.782 -2462396.761 16221855.260 10 0 60743 32400.00000 0 -21219876.590 -3240358.088 13786873.479 10 0 60743 33300.00000 0 -22665733.455 -3763717.297 11084212.580 10 0 60743 34200.00000 0 -23822144.324 -4059045.762 8166286.494 10 0 60743 35100.00000 0 -24643893.828 -4162867.314 5089721.128 10 0 60743 36000.00000 0 -25096168.418 -4119865.643 1914257.571 10 0 60743 36900.00000 0 -25156025.205 -3980746.655 -1298408.357 10 0 60743 37800.00000 0 -24813382.825 -3799846.599 -4485827.528 10 0 60743 38700.00000 0 -24071491.704 -3632587.770 -7586016.083 10 0 60743 39600.00000 0 -22946862.924 -3532890.350 -10538666.761 10 0 60743 40500.00000 0 -21468657.896 -3550650.940 -13286328.668 10 0 60743 41400.00000 0 -19677563.793 -3729395.721 -15775531.731 10 0 60743 42300.00000 0 -17624201.566 -4104208.741 -17957833.223 10 0 60743 43200.00000 0 -15367133.115 -4700024.188 -19790765.463 10 0 60743 44100.00000 0 -12970551.039 -5530356.015 -21238665.879 10 0 60743 45000.00000 0 -10501747.727 -6596519.652 -22273373.114 10 0 60743 45900.00000 0 -8028469.668 -7887379.675 -22874775.640 10 0 60743 46800.00000 0 -5616267.427 -9379634.978 -23031202.379 10 0 60743 47700.00000 0 -3325951.782 -11038630.261 -22739647.917 10 0 60743 48600.00000 0 -1211261.778 -12819660.424 -22005828.202 10 0 60743 49500.00000 0 683158.659 -14669713.668 -20844065.872 10 0 60743 50400.00000 0 2323391.953 -16529580.544 -19277007.630 10 0 60743 51300.00000 0 3687418.980 -18336240.826 -17335179.334 10 0 60743 52200.00000 0 4765784.474 -20025428.253 -15056387.587 10 0 60743 53100.00000 0 5561729.429 -21534265.662 -12484979.632 10 0 60743 54000.00000 0 6090786.697 -22803859.994 -9670976.136 10 0 60743 54900.00000 0 6379858.567 -23781748.309 -6669093.981 10 0 60743 55800.00000 0 6465816.891 -24424092.132 -3537678.418 10 0 60743 56700.00000 0 6393686.381 -24697528.120 -337565.768 10 0 60743 57600.00000 0 6214489.231 -24580597.513 2869100.843 10 0 60743 58500.00000 0 5982843.256 -24064694.627 6020079.232 10 0 60743 59400.00000 0 5754416.015 -23154494.914 9054235.655 10 0 60743 60300.00000 0 5583343.111 -21867845.039 11912728.444 10 0 60743 61200.00000 0 5519720.115 -20235119.905 14540144.867 10 0 60743 62100.00000 0 5607274.156 -18298073.838 16885569.461 10 0 60743 63000.00000 0 5881313.358 -16108233.993 18903563.703 10 0 60743 63900.00000 0 6367040.468 -13724902.962 20555038.735 10 0 60743 64800.00000 0 7078301.621 -11212853.407 21808005.161 10 0 60743 65700.00000 0 8016822.944 -8639810.004 22638186.294 10 0 60743 66600.00000 0 9171967.415 -6073822.477 23029483.816 10 0 60743 67500.00000 0 10521022.835 -3580637.736 22974287.495 10 0 60743 68400.00000 0 12030009.793 -1221178.918 22473623.342 10 0 60743 69300.00000 0 13654977.046 950765.231 21537137.378 10 0 60743 70200.00000 0 15343731.502 2890545.955 20182915.030 10 0 60743 71100.00000 0 17037931.935 4564272.828 18437139.001 10 0 60743 72000.00000 0 18675460.206 5949978.407 16333591.361 10 0 60743 72900.00000 0 20192971.956 7038281.419 13913008.474 10 0 60743 73800.00000 0 21528520.810 7832521.372 11222300.145 10 0 60743 74700.00000 0 22624146.561 8348359.345 8313647.191 10 0 60743 75600.00000 0 23428318.776 8612862.068 5243494.132 10 0 60743 76500.00000 0 23898132.832 8663108.089 2071456.050 10 0 60743 77400.00000 0 24001165.346 8544375.096 -1140839.276 10 0 60743 78300.00000 0 23716909.931 8307985.352 -4330951.339 10 0 60743 79200.00000 0 23037731.721 8008900.839 -7436845.197 10 0 60743 80100.00000 0 21969299.297 7703170.594 -10398103.712 10 0 60743 81000.00000 0 20530474.678 7445339.129 -13157109.388 10 0 60743 81900.00000 0 18752665.016 7285926.620 -15660172.043 10 0 60743 82800.00000 0 16678662.426 7269088.540 -17858579.631 10 0 60743 83700.00000 0 14361020.035 7430554.791 -19709551.203 10 0 60743 84600.00000 0 11860031.909 7795936.465 -21177073.118 10 0 60743 85500.00000 0 9241401.161 8379472.665 -22232602.018 10 0 60744 0.00000 0 6573693.797 9183271.023 -22855620.893 10 0 60744 900.00000 0 3925683.001 10197075.118 -23034037.800 10 0 60744 1800.00000 0 1363698.022 11398568.061 -22764418.960 10 0 60744 2700.00000 0 -1050916.929 12754201.395 -22052053.087 10 0 60744 3600.00000 0 -3264124.836 14220513.822 -20910844.978 10 0 60744 4500.00000 0 -5231204.466 15745884.967 -19363041.076 10 0 60744 5400.00000 0 -6918362.379 17272650.611 -17438792.416 10 0 60744 6300.00000 0 -8303882.322 18739490.575 -15175563.572 10 0 60744 7200.00000 0 -9378765.422 20083988.915 -12617399.289 10 0 60744 8100.00000 0 -10146836.008 21245258.715 -9814063.206 10 0 60744 9000.00000 0 -10624310.431 22166521.055 -6820065.673 10 0 60744 9900.00000 0 -10838848.750 22797529.550 -3693599.921 10 0 60744 10800.00000 0 -10828130.978 23096738.428 -495407.647 10 0 60744 11700.00000 0 -10638019.482 23033122.935 2712403.510 10 0 60744 12600.00000 0 -10320386.451 22587575.549 5867567.176 10 0 60744 13500.00000 0 -9930699.301 21753819.459 8908866.387 10 0 60744 14400.00000 0 -9525466.772 20538801.065 11777319.030 10 0 60744 15300.00000 0 -9159654.064 18962545.196 14417317.605 10 0 60744 16200.00000 0 -8884176.320 17057479.153 16777701.488 10 0 60744 17100.00000 0 -8743576.110 14867253.782 18812741.463 10 0 60744 18000.00000 0 -8773982.606 12445110.536 20483018.135 10 0 60744 18900.00000 0 -9001438.069 9851862.125 21756178.105 10 0 60744 19800.00000 0 -9440661.825 7153570.004 22607554.203 10 0 60744 20700.00000 0 -10094303.625 4419014.312 23020638.574 10 0 60744 21600.00000 0 -10952717.880 1717060.094 22987400.148 10 0 60744 22500.00000 0 -11994268.821 -885972.205 22508440.757 10 0 60744 23400.00000 0 -13186154.515 -3328824.254 21592986.918 10 0 60744 24300.00000 0 -14485716.334 -5557602.190 20258717.197 10 0 60744 25200.00000 0 -15842180.206 -7527769.482 18531427.826 10 0 60744 26100.00000 0 -17198757.937 -9205748.422 16444542.231 10 0 60744 27000.00000 0 -18495021.667 -10570064.444 14038472.898 10 0 60744 27900.00000 0 -19669452.788 -11611986.152 11359846.878 10 0 60744 28800.00000 0 -20662058.853 -12335634.743 8460608.938 10 0 60744 29700.00000 0 -21416948.715 -12757558.601 5397018.995 10 0 60744 30600.00000 0 -21884757.342 -12905791.180 2228562.711 10 0 60744 31500.00000 0 -22024817.556 -12818432.100 -983203.704 10 0 60744 32400.00000 0 -21806986.296 -12541811.637 -4175851.930 10 0 60744 33300.00000 0 -21213047.211 -12128316.568 -7287299.489 10 0 60744 34200.00000 0 -20237629.159 -11633969.822 -10257022.826 10 0 60744 35100.00000 0 -18888600.566 -11115867.098 -13027241.170 10 0 60744 36000.00000 0 -17186921.761 -10629579.663 -15544047.353 10 0 60744 36900.00000 0 -15165960.363 -10226634.123 -17758462.822 10 0 60744 37800.00000 0 -12870297.534 -9952176.616 -19627395.786 10 0 60744 38700.00000 0 -10354074.394 -9842920.980 -21114483.464 10 0 60744 39600.00000 0 -7678947.302 -9925468.283 -22190801.858 10 0 60744 40500.00000 0 -4911737.041 -10215069.240 -22835429.273 10 0 60744 41400.00000 0 -2121869.731 -10714882.189 -23035852.764 10 0 60744 42300.00000 0 621284.136 -11415758.236 -22788209.807 10 0 60744 43200.00000 0 3251062.000 -12296562.823 -22097360.784 10 0 60744 44100.00000 0 5706042.913 -13325020.347 -20976791.065 10 0 60744 45000.00000 0 7932357.637 -14459046.289 -19448344.826 10 0 60744 45900.00000 0 9885679.757 -15648510.752 -17541795.904 10 0 60744 46800.00000 0 11532815.796 -16837359.111 -15294264.174 10 0 60744 47700.00000 0 12852829.199 -17966000.306 -12749488.954 10 0 60744 48600.00000 0 13837652.639 -18973862.025 -9956973.717 10 0 60744 49500.00000 0 14492164.653 -19802004.929 -6971018.999 10 0 60744 50400.00000 0 14833729.071 -20395685.526 -3849662.632 10 0 60744 51300.00000 0 14891218.354 -20706759.506 -653548.319 10 0 60744 52200.00000 0 14703563.622 -20695824.121 2555255.081 10 0 60744 53100.00000 0 14317893.942 -20334009.212 5714460.126 10 0 60744 54000.00000 0 13787344.652 -19604341.482 8762769.491 10 0 60744 54900.00000 0 13168628.132 -18502624.546 11641063.151 10 0 60744 55800.00000 0 12519470.148 -17037797.777 14293540.996 10 0 60744 56700.00000 0 11896020.218 -15231758.765 16668798.990 10 0 60744 57600.00000 0 11350345.130 -13118656.613 18720818.548 10 0 60744 58500.00000 0 10928110.919 -10743685.174 20409850.635 10 0 60744 59400.00000 0 10666550.451 -8161426.011 21703178.346 10 0 60744 60300.00000 0 10592801.550 -5433809.186 22575744.131 10 0 60744 61200.00000 0 10722685.096 -2627775.657 23010630.334 10 0 60744 62100.00000 0 11059974.131 187262.931 22999384.463 10 0 60744 63000.00000 0 11596184.650 2942063.029 22542183.288 10 0 60744 63900.00000 0 12310897.170 5570178.530 21647832.698 10 0 60744 64800.00000 0 13172596.180 8010473.009 20333603.042 10 0 60744 65700.00000 0 14139993.139 10209411.897 18624902.547 10 0 60744 66600.00000 0 15163778.458 12123040.427 16554794.287 10 0 60744 67500.00000 0 16188729.955 13718565.969 14163365.014 10 0 60744 68400.00000 0 17156090.065 14975479.435 11496957.010 10 0 60744 69300.00000 0 18006112.471 15886169.368 8607276.844 10 0 60744 70200.00000 0 18680671.301 16456003.297 5550397.539 10 0 60744 71100.00000 0 19125822.864 16702873.147 2385672.938 10 0 60744 72000.00000 0 19294211.440 16656223.974 -825414.780 10 0 60744 72900.00000 0 19147216.782 16355607.173 -4020451.963 10 0 60744 73800.00000 0 18656751.555 15848819.465 -7137311.020 10 0 60744 74700.00000 0 17806631.520 15189706.716 -10115364.288 10 0 60744 75600.00000 0 16593459.186 14435725.946 -12896669.852 10 0 60744 76500.00000 0 15026982.234 13645369.252 -15427105.478 10 0 60744 77400.00000 0 13129910.232 12875559.295 -17657427.821 10 0 60744 78300.00000 0 10937196.104 12179127.126 -19544235.756 10 0 60744 79200.00000 0 8494811.435 11602479.578 -21050818.685 10 0 60744 80100.00000 0 5858066.092 11183555.242 -22147873.137 10 0 60744 81000.00000 0 3089541.748 10950155.677 -22814073.700 10 0 60744 81900.00000 0 256725.062 10918722.446 -23036487.349 10 0 60744 82800.00000 0 -2570561.184 11093611.605 -22810823.316 10 0 60744 83700.00000 0 -5322822.367 11466896.133 -22141513.913 10 0 60744 84600.00000 0 -7933541.240 12018704.451 -21041624.976 10 0 60744 85500.00000 0 -10341702.259 12718080.501 -19532597.882 99